Regional Weather Roundup
Issued by NWS

Home | Current Version | Previous Version | Graphics & Text | Print | Product List | Glossary On
Versions: 1 2 3 4 5 6 7 8 9 10 11 12 13 14 15 16 17 18 19 20 21 22 23 24 25 26 27 28 29 30 31 32 33 34 35 36 37 38 39 40 41 42 43 44 45 46 47 48 49 50
000
ASUS43 KOAX 221710
RWRNE

WEATHER ROUNDUP FOR NEBRASKA
NATIONAL WEATHER SERVICE OMAHA NE
1200 PM CDT THU JUN 22 2017

NOTES: SATELLITE DATA IS BEING USED TO AUGMENT CLOUD COVER ABOVE
       12000 FEET.
       "FAIR" INDICATES FEW OR NO CLOUDS BELOW 12,000 FEET WITH NO
       SIGNIFICANT WEATHER AND/OR OBSTRUCTIONS TO VISIBILITY.

  * THESE STATIONS DO NOT REPORT WEATHER SUCH AS RAIN...SNOW OR FOG.

NEZ001>004-019>022-054>056-221800-
NEBRASKA PANHANDLE

CITY           SKY/WX    TMP DP  RH WIND       PRES   REMARKS
SCOTTSBLUFF    SUNNY     78  50  37 N14       29.93R
ALLIANCE       SUNNY     73  53  49 N16       29.91R
CHADRON        MOSUNNY   73  53  49 NE14G21   29.93R
GORDON         CLOUDY    67  54  63 N18       29.92R
KIMBALL        SUNNY     76  50  40 N24G31    29.95R
SIDNEY         SUNNY     79  52  38 N25G38    29.90R
$$

NEZ057>060-069>072-079>082-221800-
SOUTHWEST NEBRASKA

CITY           SKY/WX    TMP DP  RH WIND       PRES   REMARKS
NORTH PLATTE   SUNNY     86  63  45 N18G28    29.72R
IMPERIAL       SUNNY     87  54  32 N26G36    29.77R
LEXINGTON      SUNNY     88  62  42 NW10G18   29.67R
MCCOOK         SUNNY     95  54  25 NW25G35   29.68R HX  93
OGALLALA       SUNNY     82  56  40 N24G30    29.81R
$$

NEZ005>010-023>029-035>040-094-221800-
NORTH CENTRAL NEBRASKA

CITY           SKY/WX    TMP DP  RH WIND       PRES   REMARKS
VALENTINE      PTSUNNY   73  54  51 N17       29.84R
AINSWORTH      CLOUDY    74  57  56 NE20      29.82R
BROKEN BOW     SUNNY     85  62  46 N16G26    29.68R
O`NEILL        CLOUDY    78  60  53 NE20G29   29.74R
ORD            SUNNY     86  58  38 N14G25    29.65R
THEDFORD       MOSUNNY   78  58  49 NE26G32   29.80R
$$

NEZ041-046>049-061>064-073>077-083>087-221800-
SOUTH CENTRAL NEBRASKA

CITY           SKY/WX    TMP DP  RH WIND       PRES   REMARKS
GRAND ISLAND   CLOUDY    86  64  47 S12       29.64S
AURORA         CLOUDY    85  61  44 S10       29.64S
HASTINGS       MOSUNNY   83  62  49 S10       29.66R
HEBRON         SUNNY     88  64  44 SW15G23   29.64S
HOLDREGE       CLOUDY    86  60  41 SW8       29.66R
KEARNEY *      CLOUDY    88  61  40 SW5       29.65R
YORK           CLOUDY    84  64  51 SW12      29.65S
$$

NEZ011>018-030>034-042>045-221800-
NORTHEAST NEBRASKA

CITY           SKY/WX    TMP DP  RH WIND       PRES   REMARKS
NORFOLK        CLOUDY    83  62  49 NW5       29.64R
ALBION         CLOUDY    84  61  45 CALM      29.66F
BLAIR          MOSUNNY   84  65  52 S8        29.66S
FREMONT        SUNNY     83  64  52 SE6       29.65S
TEKAMAH        CLOUDY    84  62  47 S8        29.64S
WAYNE          CLOUDY    85  64  50 N8        29.66R
$$

NEZ050>053-065>068-078-088>093-221800-
SOUTHEAST NEBRASKA

CITY           SKY/WX    TMP DP  RH WIND       PRES   REMARKS
LINCOLN        SUNNY     86  67  52 S13       29.64S
OMAHA EPPLEY   MOSUNNY   84  65  52 S15       29.66R
BEATRICE       SUNNY     84  68  57 S17       29.66R
FALLS CITY     CLOUDY    83  67  58 S16G23    29.69S
NEBRASKA CITY  SUNNY     84  67  55 S14G21    29.68F
PLATTSMOUTH    MOSUNNY   84  66  54 S14       29.67S
$$

NEZ044-045-051>053-067-221800-
OMAHA AREA

CITY           SKY/WX    TMP DP  RH WIND       PRES   REMARKS
OMAHA EPPLEY   MOSUNNY   84  65  52 S15       29.66R
BLAIR          MOSUNNY   84  65  52 S8        29.66S
FREMONT        SUNNY     83  64  52 SE6       29.65S
MILLARD        SUNNY     85  68  57 S10       29.65S
OFFUTT AFB     MOSUNNY   84  66  55 S15G23    29.65F
PLATTSMOUTH    MOSUNNY   84  66  54 S14       29.67S
WAHOO          FAIR      84  63  48 S9        29.64S
$$




USA.gov is the U.S. government's official web portal to all federal, state and local government web resources and services.